Regional Weather Roundup
Issued by NWS

Home | Current Version | Previous Version | Graphics & Text | Print | Product List | Glossary On
Versions: 1 2 3 4 5 6 7 8 9 10 11 12 13 14 15 16 17 18 19 20 21 22 23 24 25 26 27 28 29 30 31 32 33 34 35 36 37 38 39 40 41 42 43 44 45 46 47 48 49 50
000
ASUS43 KLOT 310800
RWRIL

ILLINOIS REGIONAL WEATHER ROUNDUP
NATIONAL WEATHER SERVICE CHICAGO/ROMEOVILLE IL
300 AM CDT SUN AUG 31 2014

NOTE: "FAIR" INDICATES FEW OR NO CLOUDS BELOW 12,000 FEET WITH NO
SIGNIFICANT WEATHER AND/OR OBSTRUCTIONS TO VISIBILITY.

* THESE STATIONS ARE NOT UNDER NWS QUALITY CONTROL. THEY ALSO MAY NOT
  REPORT WEATHER SUCH AS PRECIPITATION OR FOG.

ILZ001-002-007-009-015-016-024-310900-
NORTHWEST ILLINOIS

CITY           SKY/WX    TMP DP  RH WIND       PRES   REMARKS
MOLINE         FOG       64  63  96 CALM      29.91S VSB 1/2
STERLING*      PTCLDY    64  61  88 CALM      29.91F
$$

ILZ003-004-008-010-011-017-018-310900-
NORTH CENTRAL ILLINOIS

CITY           SKY/WX    TMP DP  RH WIND       PRES   REMARKS
ROCKFORD       MOCLDY    65  63  93 CALM      29.92S
$$

ILZ005-006-012>014-019>023-310900-
NORTHEAST ILLINOIS

CITY           SKY/WX    TMP DP  RH WIND       PRES   REMARKS
CHICAGO-OHARE  MOCLDY    70  65  84 SW3       29.91S
CHICAGO-MIDWAY MOCLDY    73  68  84 S7        29.92R
AURORA         PTCLDY    65  63  93 CALM      29.92S FOG
WAUKEGAN       MOCLDY    67  63  87 SW5       29.90S
DUPAGE AIRPORT CLOUDY    69  66  90 CALM      29.92R
WHEELING       MOCLDY    70  66  87 CALM      29.93R
NORTHERLY ISL    N/A     73  66  78 S5          N/A
$$

LMZ740>746-310900-
SOUTHERN LAKE MICHIGAN

STATION/POSITION SKY/WX   TEMP    WIND        PRES    VSBY  WAVE
                          AIR SEA DIR/SP/G                  HT/PER
                          (F)     (DEG/KT/KT) (MB)    (MI)  (FT/S)
SOUTHERN BUOY              71 69  220/  8/  8 1012.3S         1/ 4
WAUKEGAN HARBOR            70     210/  4/  5   N/A
HARRISON CRIB              73     200/  9/ 10   N/A
BURNHAM HARBOR             73     210/  3/  7   N/A
CALUMET HARBOR             71     190/  4/  6 1012.1R
MICHIGAN CITY              69     200/  6/  9   N/A
MICHIGAN CITY 6N           70 72  210/ 10/ 12   N/A           1/ 3
ST. JOSEPH                 71 71  200/ 10/ 12   N/A           2/ 3
$$

ILZ025>027-034>036-040-047-049-050-058-095>099-310900-
WEST-CENTRAL ILLINOIS

CITY           SKY/WX    TMP DP  RH WIND       PRES   REMARKS
QUINCY         CLEAR     71  68  90 S6        29.91S
MACOMB*        CLEAR     64  63  99 CALM      29.93S
$$

ILZ028>032-037-038-041>044-048-051>054-059>061-310900-
CENTRAL ILLINOIS

CITY           SKY/WX    TMP DP  RH WIND       PRES   REMARKS
DECATUR        CLOUDY    73  70  90 SW7       29.95S
PEORIA         PTCLDY    71  65  81 S3        29.92S
SPRINGFIELD    CLEAR     73  71  93 S7        29.93F
TAYLORVILLE    NOT AVBL
$$

ILZ033-039-045-046-055>057-062-063-310900-
EAST-CENTRAL ILLINOIS

CITY           SKY/WX    TMP DP  RH WIND       PRES   REMARKS
CHAMPAIGN      CLOUDY    73  70  90 S8        29.95F
MATTOON        CLOUDY    72  70  93 S6        29.95F
$$

ILZ079-100>102-310900-
SOUTHWEST ILLINOIS

CITY           SKY/WX    TMP DP  RH WIND       PRES   REMARKS
BELLEVILLE     CLEAR     72  71  99 E3        29.94S
CAHOKIA*       CLEAR     72  70  93 S5        29.94
$$

ILZ064>066-069>071-074>076-080>082-084>086-088>090-092>094-310900-
SOUTH-CENTRAL ILLINOIS

CITY           SKY/WX    TMP DP  RH WIND       PRES   REMARKS
CARBONDALE     PTCLDY    72  70  93 S6        29.97F
MT. VERNON     CLOUDY    73  66  78 S6        29.98S
$$

ILZ067-068-072-073-078-083-087-091-310900-
SOUTHEAST ILLINOIS

CITY           SKY/WX    TMP DP  RH WIND       PRES   REMARKS
LAWRENCEVILLE  CLOUDY    72  71  97 S6        29.99S
ROBINSON*      CLOUDY    72  71  97 CALM      29.99F
$$

ABBREVIATIONS USED IN REMARKS
   TC - TEMPERATURE IN CELSIUS
  WCI - WIND CHILL INDEX
   HX - HEAT INDEX
  VSB - VISIBILITY
$$



USA.gov is the U.S. government's official web portal to all federal, state and local government web resources and services.